[[{"header":{"parameterUnit":"m.s-1","parameterCategory":1,"la1":30.2991,"la2":30.254,"lo1":-89.0895,"lo2":-89.0444,"dy":0.0017,"dx":0.0017,"nx":28,"ny":28,"refTime":"2025-08-21T09:00:00:Z","depth":0,"parameterNumber":2,"parameterNumberName":"U-component_of_WINDS"},"data":[0,0,0,0,0,0,0,0,0,0,0,0,0,0,0,0,0,0,0,0,0,0,0,0,0,0,0,0,0,0,0,0,0,0,0,0,0,0,0,0,0,0,0,0,0,0,0,0,0,0,0,0,0,0,0,0,0,0,0.955,0.9551,0,0.9626,0.9627,0.9628,0.9631,0.963,0.9629,0.9628,0.9705,0.9707,0.971,0,0,0,0,0,0,0,0,0,0,0,0,0,0.9408,0.9411,0.955,0.9551,0.9552,0.9626,0.9627,0.9628,0.9631,0.963,0.9629,0.9628,0.9704,0.9707,0.9711,0,0,0,0,0,0,0,0,0,0,0,0,0,0.9475,0.9412,0.955,0.9563,0.9564,0.9625,0.9627,0.9628,0.9631,0.963,0.9628,0.9627,0.9703,0.9707,0.9711,0.9765,0,0,0.9724,0.9726,0,0,0,0,0,0,0,0,0.9471,0.9481,0.956,0.9562,0.9564,0.9617,0.9605,0.9674,0.9631,0.9606,0.9628,0.9626,0.9677,0.9683,0.97,0.9768,0.9772,0.9725,0.9727,0.9729,0.973,0,0,0,0,0,0,0,0.9467,0.9477,0.958,0.9561,0.9564,0.9564,0.9572,0.9618,0.9648,0.9608,0.9608,0.9617,0.9678,0.9696,0.9702,0.9773,0.9725,0.9728,0.9731,0.9733,0.9889,0.989,0,0,0,0,0,0,0.946,0.9473,0.9578,0.9582,0.9514,0.9568,0.9577,0.9602,0.9647,0.9653,0.9618,0.9617,0.9689,0.9697,0.9705,0.977,0.9729,0.9733,0.9736,0.9887,0.9889,0.9891,0,0,0,0,0,0,0.9457,0.9469,0.9575,0.9528,0.9542,0.9572,0.96,0.9604,0.9622,0.9655,0.966,0.9632,0.9689,0.9699,0.975,0.9773,0.9735,0.9739,0.9885,0.9888,0.989,0.9902,0,0,0,0,0,0,0.9453,0.9468,0.9489,0.9529,0.9544,0.9619,0.9601,0.9606,0.963,0.9629,0.9669,0.9674,0.9688,0.9743,0.9754,0.9778,0.9742,0.9883,0.9886,0.9889,0.99,0.9905,0.9909,0,0,0,0,0,0.9448,0.9489,0.949,0.9502,0.9571,0.962,0.9629,0.9644,0.9632,0.9653,0.9674,0.9673,0.9769,0.9749,0.9761,0.9787,0.9882,0.9885,0.9889,0.9898,0.9904,0.9909,0,0,0,0,0,0,0.9451,0.9495,0.9496,0.9551,0.9582,0.962,0.9647,0.965,0.9684,0.9682,0.9699,0.9708,0.9759,0.9778,0.9755,0.9841,0.9824,0.983,0.9827,0.9833,0.9837,0.9831,0.9746,0,0,0,0,0,0.9458,0.9495,0.9531,0.9577,0.9592,0.9617,0.9639,0.9648,0.968,0.9693,0.9718,0.9749,0.9787,0.9811,0.9847,0.9903,0.9912,0.9927,0.9931,0.9935,0.994,0.9971,0.9978,0.9902,0.9902,0.9902,0,0,0.9474,0.9502,0.9524,0.9578,0.9603,0.964,0.9628,0.9668,0.9696,0.9699,0.9749,0.9769,0.9805,0.9859,0.9883,0.9876,0.9963,0.9939,0.9942,0.9945,0.9975,0.9982,0.9988,0.9904,0.9904,0.9904,0,0,0.9521,0.9546,0.9587,0.9612,0.965,0.9666,0.9676,0.9714,0.9727,0.9778,0.9781,0.9814,0.9878,0.9904,0.9925,0.9982,0.9982,0.9993,1.0016,1.0046,1.0052,1.0058,1.0078,1.0085,0.9998,0.9998,0.9998,0,0.9535,0.9592,0.9607,0.9648,0.9671,0.9676,0.9718,0.9741,0.9789,0.9805,0.9796,0.9876,0.99,0.996,0.9974,0.9991,1.0003,0.9988,1.005,1.0056,1.0061,1.0081,1.0088,0.9999,0.9999,0.9999,0.9999,0,0.9607,0.9647,0.9675,0.9721,0.9748,0.9788,0.981,0.9835,0.9842,0.9859,0.9911,0.994,0.9983,0.9997,1.0004,1.0059,1.0053,1.0047,1.003,1.0069,1.0088,1.0095,1.0,1.0,1.0,1.0,0,0,0.9658,0.9713,0.9723,0.9744,0.9786,0.9817,0.9857,0.9899,0.992,0.9953,0.9987,1.0041,1.0036,1.006,1.007,1.0096,1.014,1.0087,1.0088,1.0096,1.0201,1.0205,1.0213,1.014,1.0142,1.0143,1.0198,0,0.971,0.9783,0.9798,0.9861,0.9898,0.9903,0.9939,0.9968,0.9986,1.0019,1.0038,1.0076,1.0066,1.0081,1.0107,1.0129,1.0161,1.0125,1.0172,1.0174,1.0163,1.0223,1.0227,1.0277,1.0205,1.0206,1.0207,0,0.978,0.9814,0.9881,0.9918,0.9934,0.9966,1.0005,1.0037,1.0071,1.0081,1.0108,1.0116,1.0158,1.0139,1.0198,1.0173,1.0194,1.0207,1.0209,1.0214,1.0193,1.0229,1.0294,1.0301,1.0219,1.0218,1.0217,0,0.981,0.9874,0.9922,0.9939,0.9984,1.0006,1.0026,1.0058,1.0082,1.0116,1.0132,1.0171,1.0192,1.0222,1.0239,1.0224,1.0296,1.0279,1.0306,1.0306,1.0321,1.032,1.039,1.0335,1.0334,1.0334,1.0334,0,0.9866,0.9907,0.9936,0.9965,1.0011,1.0028,1.0073,1.0092,1.0121,1.0154,1.0161,1.0192,1.0213,1.0247,1.0261,1.0308,1.0317,1.0327,1.033,1.0326,1.0325,1.034,1.0336,1.0336,1.0336,1.0336,1.0335,0,0.9908,0.9929,0.9982,1.002,1.0031,1.0062,1.0095,1.0124,1.0141,1.0183,1.0194,1.0222,1.0262,1.0282,1.0333,1.0342,1.0394,1.0395,1.0383,1.0384,1.041,1.0407,1.0492,1.0504,1.0441,1.0441,1.0442,0,0.9942,0.9974,1.0015,1.0038,1.0058,1.0095,1.012,1.0138,1.0163,1.0204,1.0228,1.0268,1.0302,1.0366,1.039,1.0429,1.0431,1.0458,1.0437,1.0432,1.0431,1.0429,1.0432,1.0461,1.0462,1.0463,1.0463,0,1.0001,1.001,1.0045,1.0084,1.0113,1.0144,1.0175,1.0194,1.0217,1.0245,1.0286,1.0312,1.0364,1.0404,1.0444,1.0464,1.0468,1.0469,1.0478,1.0474,1.0465,1.047,1.0393,1.0467,1.0467,1.0467,1.0466,1.0466,1.004,1.0068,1.0101,1.014,1.0166,1.0194,1.0223,1.0245,1.028,1.0323,1.0331,1.0375,1.0408,1.0463,1.0484,1.0519,1.0513,1.0525,1.0528,1.053,1.0532,1.046,1.0526,1.0526,1.0526,1.0526,1.0526,0,1.0098,1.012,1.0156,1.0199,1.023,1.023,1.0265,1.029,1.0329,1.0359,1.0392,1.044,1.0479,1.0507,1.0546,1.0569,1.0571,1.0578,1.0577,1.0581,1.0535,1.0523,1.0576,1.0576,1.0576,1.0576,1.0576,1.0576,1.0132,1.018,1.0193,1.0253,1.0275,1.0318,1.0337,1.0364,1.0388,1.0441,1.0474,1.0491,1.0521,1.0563,1.0599,1.0606,1.062,1.0627,1.0634,1.059,1.0585,1.058,1.0569,1.063,1.063,1.0678,1.0679,1.0679]},{"header":{"parameterUnit":"m.s-1","parameterCategory":1,"la1":30.2991,"la2":30.254,"lo1":-89.0895,"lo2":-89.0444,"dy":0.0017,"dx":0.0017,"nx":28,"ny":28,"refTime":"2025-08-21T09:00:00:Z","depth":0,"parameterNumber":3,"parameterNumberName":"V-component_of_WINDS"},"data":[0,0,0,0,0,0,0,0,0,0,0,0,0,0,0,0,0,0,0,0,0,0,0,0,0,0,0,0,0,0,0,0,0,0,0,0,0,0,0,0,0,0,0,0,0,0,0,0,0,0,0,0,0,0,0,0,0,0,-0.7553,-0.7553,0,-0.7556,-0.7556,-0.7556,-0.7572,-0.7572,-0.7572,-0.7573,-0.7576,-0.7575,-0.7575,0,0,0,0,0,0,0,0,0,0,0,0,0,-0.7558,-0.7558,-0.7553,-0.7553,-0.7553,-0.7556,-0.7556,-0.7556,-0.7572,-0.7572,-0.7573,-0.7573,-0.7576,-0.7575,-0.7575,0,0,0,0,0,0,0,0,0,0,0,0,0,-0.7558,-0.7558,-0.7553,-0.7561,-0.7562,-0.7556,-0.7556,-0.7556,-0.7572,-0.7572,-0.7573,-0.7573,-0.7576,-0.7575,-0.7575,-0.7562,0,0,-0.7574,-0.7574,0,0,0,0,0,0,0,0,-0.7558,-0.7558,-0.7559,-0.756,-0.7561,-0.7564,-0.7559,-0.7558,-0.7571,-0.7568,-0.7573,-0.7573,-0.7571,-0.7571,-0.7571,-0.7562,-0.7562,-0.7574,-0.7573,-0.7573,-0.7573,0,0,0,0,0,0,0,-0.7558,-0.7558,-0.7554,-0.7559,-0.756,-0.7564,-0.7565,-0.7559,-0.7566,-0.7568,-0.7569,-0.757,-0.7572,-0.7571,-0.7571,-0.7562,-0.7574,-0.7573,-0.7573,-0.7573,-0.7542,-0.7542,0,0,0,0,0,0,-0.7557,-0.7558,-0.7554,-0.7554,-0.7561,-0.7563,-0.7564,-0.7563,-0.7566,-0.7568,-0.7569,-0.757,-0.7571,-0.7571,-0.7571,-0.7556,-0.7573,-0.7573,-0.7573,-0.7543,-0.7542,-0.7542,0,0,0,0,0,0,-0.7557,-0.7556,-0.7554,-0.7556,-0.7556,-0.7563,-0.7561,-0.7562,-0.7562,-0.7567,-0.7568,-0.7567,-0.7572,-0.7572,-0.7564,-0.7556,-0.7573,-0.7572,-0.7544,-0.7543,-0.7542,-0.7524,0,0,0,0,0,0,-0.7557,-0.7556,-0.7552,-0.7556,-0.7556,-0.7547,-0.756,-0.7562,-0.7561,-0.7563,-0.7566,-0.7567,-0.7572,-0.7564,-0.7564,-0.7556,-0.7572,-0.7544,-0.7543,-0.7542,-0.7526,-0.7523,-0.7521,0,0,0,0,0,-0.7557,-0.7546,-0.7551,-0.7551,-0.755,-0.7546,-0.7546,-0.7553,-0.756,-0.7555,-0.7559,-0.7567,-0.7557,-0.7564,-0.7563,-0.7554,-0.7545,-0.7543,-0.7542,-0.7527,-0.7524,-0.7521,0,0,0,0,0,0,-0.754,-0.7547,-0.7553,-0.7543,-0.7544,-0.7549,-0.7543,-0.7549,-0.7548,-0.755,-0.7558,-0.7559,-0.755,-0.7551,-0.7559,-0.7542,-0.7552,-0.7551,-0.7541,-0.7538,-0.7535,-0.7535,-0.7572,0,0,0,0,0,-0.7535,-0.7532,-0.7538,-0.7529,-0.7529,-0.7536,-0.7534,-0.754,-0.7541,-0.7541,-0.7545,-0.7545,-0.7543,-0.754,-0.7538,-0.7526,-0.7527,-0.752,-0.7518,-0.7516,-0.7514,-0.7508,-0.7505,-0.7537,-0.7537,-0.7537,0,0,-0.7525,-0.7529,-0.7526,-0.7525,-0.7527,-0.7523,-0.7536,-0.7531,-0.7528,-0.7541,-0.7534,-0.7536,-0.7537,-0.7528,-0.7523,-0.7529,-0.7505,-0.7514,-0.7512,-0.7512,-0.7506,-0.7503,-0.75,-0.7536,-0.7537,-0.7537,0,0,-0.7504,-0.7507,-0.7499,-0.7501,-0.7503,-0.7508,-0.7506,-0.751,-0.7512,-0.7505,-0.7514,-0.7511,-0.7506,-0.7507,-0.7506,-0.7486,-0.7493,-0.7485,-0.7472,-0.7466,-0.7463,-0.7461,-0.7453,-0.7451,-0.7484,-0.7484,-0.7484,0,-0.7491,-0.7486,-0.7494,-0.7489,-0.7489,-0.75,-0.7493,-0.7493,-0.7495,-0.7494,-0.75,-0.7494,-0.7496,-0.7486,-0.7482,-0.7481,-0.7479,-0.7485,-0.7463,-0.7461,-0.7459,-0.7452,-0.7449,-0.7483,-0.7483,-0.7483,-0.7483,0,-0.7469,-0.7466,-0.7459,-0.7461,-0.7459,-0.7453,-0.746,-0.7458,-0.7464,-0.7468,-0.746,-0.7463,-0.7462,-0.746,-0.7465,-0.7451,-0.7454,-0.7462,-0.7472,-0.7455,-0.7448,-0.7445,-0.7481,-0.7482,-0.7482,-0.7482,0,0,-0.7437,-0.7444,-0.7441,-0.7442,-0.7446,-0.7443,-0.7437,-0.7436,-0.7433,-0.7434,-0.7429,-0.7425,-0.7432,-0.7431,-0.7437,-0.7432,-0.7415,-0.744,-0.744,-0.7434,-0.7399,-0.7393,-0.739,-0.742,-0.742,-0.7419,-0.7399,0,-0.7417,-0.7407,-0.7415,-0.7404,-0.74,-0.7412,-0.7407,-0.7408,-0.7412,-0.7409,-0.7413,-0.741,-0.7419,-0.7419,-0.7414,-0.7418,-0.7408,-0.742,-0.7415,-0.7415,-0.7413,-0.7386,-0.738,-0.7361,-0.7396,-0.7396,-0.7396,0,-0.7392,-0.7392,-0.738,-0.7385,-0.7384,-0.7379,-0.7379,-0.7376,-0.7378,-0.7381,-0.7381,-0.7388,-0.7382,-0.7393,-0.7385,-0.7393,-0.7391,-0.7393,-0.7392,-0.7392,-0.7403,-0.7384,-0.7355,-0.7351,-0.7392,-0.7392,-0.7392,0,-0.7369,-0.7366,-0.7359,-0.7359,-0.7364,-0.7361,-0.7363,-0.7365,-0.7364,-0.7364,-0.7363,-0.7362,-0.7361,-0.736,-0.7367,-0.7374,-0.7358,-0.7369,-0.736,-0.7359,-0.7355,-0.7355,-0.7324,-0.7355,-0.7355,-0.7355,-0.7355,0,-0.7345,-0.7337,-0.7348,-0.7344,-0.7336,-0.7345,-0.7336,-0.7339,-0.7342,-0.7338,-0.7348,-0.7344,-0.7353,-0.735,-0.7355,-0.7347,-0.7347,-0.7349,-0.735,-0.7348,-0.7347,-0.7346,-0.7348,-0.7354,-0.7355,-0.7355,-0.7355,0,-0.7317,-0.7325,-0.7317,-0.7323,-0.7325,-0.7318,-0.7323,-0.7319,-0.7324,-0.7318,-0.7318,-0.7325,-0.7322,-0.7329,-0.7326,-0.733,-0.7319,-0.7322,-0.7318,-0.7319,-0.7309,-0.7309,-0.7275,-0.7271,-0.7305,-0.7305,-0.7305,0,-0.7301,-0.7296,-0.7301,-0.73,-0.7301,-0.7298,-0.7297,-0.7306,-0.7305,-0.7307,-0.7302,-0.73,-0.7299,-0.7293,-0.7298,-0.7296,-0.73,-0.7288,-0.73,-0.7297,-0.7299,-0.7299,-0.7298,-0.7285,-0.7285,-0.7285,-0.7284,0,-0.7272,-0.7276,-0.7274,-0.7274,-0.7273,-0.7273,-0.7274,-0.7272,-0.7281,-0.7279,-0.7276,-0.7275,-0.7273,-0.7271,-0.727,-0.7272,-0.7279,-0.7281,-0.7278,-0.7275,-0.7273,-0.7273,-0.7311,-0.7281,-0.7282,-0.7282,-0.7282,-0.7282,-0.7249,-0.7245,-0.7248,-0.7246,-0.7248,-0.7248,-0.7245,-0.7249,-0.7247,-0.7246,-0.7252,-0.7248,-0.725,-0.725,-0.7251,-0.7248,-0.7253,-0.725,-0.7249,-0.7248,-0.7246,-0.7274,-0.7248,-0.7248,-0.7248,-0.7248,-0.7248,0,-0.722,-0.7223,-0.7221,-0.7222,-0.722,-0.7228,-0.7229,-0.7227,-0.7224,-0.7226,-0.7224,-0.7221,-0.7219,-0.7224,-0.7222,-0.7219,-0.7222,-0.7218,-0.7218,-0.7218,-0.7241,-0.7243,-0.7215,-0.7215,-0.7215,-0.7215,-0.7215,-0.7215,-0.7204,-0.7197,-0.7202,-0.7195,-0.7198,-0.7195,-0.7195,-0.7195,-0.7196,-0.7192,-0.7191,-0.7194,-0.7197,-0.7196,-0.7194,-0.7196,-0.7195,-0.7189,-0.7192,-0.7213,-0.7216,-0.7219,-0.7221,-0.7189,-0.7189,-0.7168,-0.7168,-0.7168]}]]